Weather History for KMLC - September, 2013

Change the Weather History Date:

Monday, September 16, 2013

  Actual Average Record
Temperature  
Mean Temperature 78 °F -  
Max Temperature 91 °F - - ()
Min Temperature 66 °F - - ()
Cooling Degree Days 13    
Growing Degree Days 28 (Base 50)    
Moisture  
Dew Point 62 °F    
Average Humidity 55    
Maximum Humidity 84    
Minimum Humidity 37    
Precipitation  
Precipitation 0.00 in - - ()
Sea Level Pressure  
Sea Level Pressure 30.07 in    
Wind  
Wind Speed 5 mph (NE)    
Max Wind Speed 12 mph    
Max Gust Speed 21 mph    
Visibility 10 miles    
Events      
T = Trace of Precipitation, MM = Missing Value Source: NWS Daily Summary

Daily Weather History Graph

Daily Weather History Graph

Search for Another Location

Airport or City:

Trip Planner

Search our weather history database for the weather conditions in past years. The results will help you decide how hot, cold, wet, or windy it might be!

Date:

Astronomy

Sep. 16, 2013 Rise Set
Actual Time 7:06 AM CDT 7:28 PM CDT
Civil Twilight 6:41 AM CDT 7:53 PM CDT
Nautical Twilight 6:11 AM CDT 8:23 PM CDT
Astronomical Twilight 5:41 AM CDT 8:53 PM CDT
Moon 5:33 PM CDT (9/16) 4:00 AM CDT (9/16)
Length of Visible Light 13h 11m
Length of Day
12h 21m
Waxing Gibbous, 90% of the Moon is Illuminated
Sep 16
Waxing Gibbous
Sep 19
Full
Sep 26
Last Quarter
Oct 4
New
Oct 11
First Quarter

Hourly Weather History & Observations

Time (CDT) Temp. Heat Index Dew Point Humidity Pressure Visibility Wind Dir Wind Speed Gust Speed Precip Events Conditions
12:53 AM 79.0 °F - 63.0 °F 58% 30.03 in 10.0 mi SSE 4.6 mph - N/A   Clear
1:53 AM 78.1 °F - 63.0 °F 60% 30.02 in 10.0 mi Variable 4.6 mph - N/A   Clear
2:53 AM 77.0 °F - 62.1 °F 60% 30.02 in 10.0 mi South 3.5 mph - N/A   Clear
3:53 AM 75.9 °F - 61.0 °F 60% 30.02 in 10.0 mi Variable 3.5 mph - N/A   Clear
4:53 AM 72.0 °F - 62.1 °F 71% 30.04 in 10.0 mi Calm Calm - N/A   Scattered Clouds
5:53 AM 69.1 °F - 62.1 °F 78% 30.05 in 10.0 mi Calm Calm - N/A   Partly Cloudy
6:53 AM 66.9 °F - 62.1 °F 84% 30.07 in 10.0 mi Calm Calm - N/A   Mostly Cloudy
7:53 AM 69.1 °F - 63.0 °F 81% 30.09 in 10.0 mi Calm Calm - N/A   Overcast
8:53 AM 75.0 °F - 62.1 °F 64% 30.12 in 10.0 mi North 10.4 mph 20.7 mph N/A   Overcast
9:53 AM 79.0 °F - 64.0 °F 60% 30.13 in 10.0 mi North 11.5 mph - N/A   Partly Cloudy
10:53 AM 84.0 °F 84.9 °F 63.0 °F 49% 30.13 in 10.0 mi NNE 9.2 mph - N/A   Clear
11:44 AM 84.2 °F 85.0 °F 62.6 °F 48% 30.16 in 2.5 mi ENE 8.1 mph - N/A   Haze
11:51 AM 86.0 °F 86.6 °F 62.6 °F 45% 30.16 in 10.0 mi NNE 11.5 mph - N/A   Scattered Clouds
11:53 AM 86.0 °F 86.1 °F 61.0 °F 43% 30.13 in 10.0 mi NNE 9.2 mph - N/A   Scattered Clouds
12:53 PM 87.1 °F 87.5 °F 62.1 °F 43% 30.12 in 10.0 mi NNE 9.2 mph - N/A   Unknown
1:53 PM 87.1 °F 87.5 °F 62.1 °F 43% 30.09 in 10.0 mi NE 10.4 mph - N/A   Overcast
2:53 PM 89.1 °F 89.0 °F 61.0 °F 39% 30.06 in 10.0 mi NNE 6.9 mph - N/A   Clear
3:53 PM 89.1 °F 89.0 °F 61.0 °F 39% 30.04 in 10.0 mi Variable 4.6 mph - N/A   Mostly Cloudy
4:53 PM 90.0 °F 89.7 °F 60.1 °F 37% 30.02 in 10.0 mi NE 6.9 mph - N/A   Clear
5:53 PM 88.0 °F 87.9 °F 61.0 °F 40% 30.01 in 10.0 mi Variable 6.9 mph - N/A   Clear
6:53 PM 87.1 °F 87.0 °F 61.0 °F 41% 30.03 in 10.0 mi NE 8.1 mph - N/A   Clear
7:53 PM 82.9 °F 83.7 °F 62.1 °F 49% 30.04 in 10.0 mi ENE 3.5 mph - N/A   Clear
8:53 PM 81.0 °F 81.9 °F 62.1 °F 52% 30.05 in 10.0 mi East 3.5 mph - N/A   Clear
9:53 PM 78.1 °F - 62.1 °F 58% 30.06 in 10.0 mi East 3.5 mph - N/A   Clear
10:53 PM 79.0 °F - 62.1 °F 56% 30.06 in 10.0 mi East 3.5 mph - N/A   Clear
11:53 PM 77.0 °F - 62.1 °F 60% 30.06 in 10.0 mi East 4.6 mph - N/A   Clear